Location: Celina Elementary School
(33.3262°N, 96.7767°W)
Time: 08:59:43
(UTC+00:00)

CZ-4B DEB - Pass Details

Date: 26 November 2021
Orbit: 840 x 861 km, 99.1° (Epoch: 19 January)

Event Time Altitude Azimuth Distance (km) Brightness Sun altitude
Rises 23:45:16 0° 151° (SSE) 3,421 7.3 -5.6°
Reaches altitude 10° 23:47:42 10° 146° (SE) 2,486 6.5 -6.1°
Maximum altitude 23:53:00 50° 72° (ENE) 1,078 4.4 -7.2°
Drops below altitude 10° 23:58:19 10° 358° (N) 2,488 6.5 -8.2°
Sets 00:00:45 0° 354° (N) 3,425 7.2 -8.7°
